{"data":{"norad_id":53479,"intl_designator":"2022-099Q","name":"STARLINK-4436","alt_names":[],"object_type":"PAYLOAD","status":"ACTIVE","operator":null,"country":"US","launch_date":"2022-08-12","launch_site_code":"AFWTR","launch_vehicle":null,"mission":null,"orbit_class":"UNKNOWN","rcs_meters":null,"size_class":null,"mass_kg":null,"dimensions":null,"purposes":["comms"],"wikipedia_slug":null,"has_3d_model":false,"image_url":null,"decayed_at":null,"tle_current":{"epoch":"2026-05-25T01:31:11.636832Z","epoch_age_seconds":83772,"freshness":"FRESH","line1":"1 53479U 22099Q   26145.06332913 -.00000835  00000+0 -53829-4 0  9993","line2":"2 53479  97.4462 266.1911 0002370 124.0550 236.0902 15.05654068207547","mean_motion":15.05654068,"eccentricity":0.000237,"inclination_deg":97.4462,"raan_deg":266.1911,"arg_perigee_deg":124.055,"mean_anomaly_deg":236.0902,"bstar":-5.3829e-5,"rev_number":20754,"period_min":95.639498514608,"perigee_km":547.85682622533,"apogee_km":551.1405255357,"semimajor_km":6927.6356758805,"source":"CELESTRAK","updated_at":"2026-05-25T13:38:17.432452Z"}}}